Location: ???????
(55.4362°N, 38.1183°E)
Time: 18:07:49
(UTC+00:00)

Cosmos 1437 Rocket - Pass Details

Date: 17 June 2021
Orbit: 500 x 566 km, 81.2° (Epoch: 29 July)

Event Time Altitude Azimuth Distance (km) Brightness Sun altitude
Rises 22:19:47 0° 347° (NNW) 2,709 7.7 -10.4°
Reaches altitude 10° 22:22:00 10° 350° (N) 1,801 6.7 -10.3°
Maximum altitude 22:25:56 64° 73° (ENE) 589 3.1 -10.2°
Drops below altitude 10° 22:29:44 10° 155° (SSE) 1,747 4.9 -10.1°
Enters shadow 22:30:02 - 156° (SSE) 1,865 5.1 -10.1°
